Prox-1
1 44339U 19036A   25125.54839715  .00014781  00000-0  19092-2 0  9993
2 44339  23.9973 291.7838 0007943  34.2254 325.8754 14.79226441312919
SONATE
1 44400U 19038Q   25125.31489796  .00171825  00000-0  93416-3 0  9995
2 44400  97.6954 147.9083 0004447  55.5208 304.6477 15.79491013323986
Taurus 1
1 44530U 19059C   25125.84027965  .00009821  00000-0  18230-2 0  9992
2 44530  98.6026 263.6043 0010820 142.8574 217.3379 14.65391049298851
Duchifat 3
1 44854U 19089C   25125.60056716  .00053261  00000-0  11445-2 0  9992
2 44854  36.9435 217.1134 0001160 339.6155  20.4554 15.43656151297539
TO-108
1 44881U 19093C   25125.87170405  .00001404  00000-0  16849-3 0  9994
2 44881  97.7930 202.2471 0013449 351.7674   8.3319 14.85527808290928
FloripaSat 1
1 44885U 19093G   25125.81992592  .00006665  00000-0  56759-3 0  9999
2 44885  97.8146 213.3623 0009903 325.5348  34.5231 14.98084839291540
RS-44
1 44909U 19096E   25124.82599043  .00000024  00000-0  49217-4 0  9998
2 44909  82.5208 251.0305 0217674  19.4739 341.4517 12.79740329250117
UPMSat 2
1 46276U 20061E   25125.16720279  .00071558  00000-0  75068-3 0  9998
2 46276  97.2461 198.4788 0001385 149.6740 210.4600 15.64150878259924
SALSAT
1 46495U 20068K   25124.92814615  .00010076  00000-0  44098-3 0  9996
2 46495  97.8588 101.3293 0009491 289.6747  70.3464 15.22224157253106
CubeSX-Sirius-HSE
1 47951U 21022V   25125.75697729  .00306038  00000-0  15453-2 0  9990
2 47951  97.4165  37.1610 0009031  96.3331 263.8966 15.80739086228320
CubeSX-HSE
1 47952U 21022W   25125.77258331  .00316449  00000-0  15610-2 0  9997
2 47952  97.4170  37.4315 0008503  95.4578 264.7660 15.81230194228348
GRBAlpha
1 47959U 21022AD  25125.75432765  .00291884  00000-0  15119-2 0  9996
2 47959  97.4169  37.5101 0008619  95.2351 264.9900 15.80218474227166
TUBIN
1 48900U 21059X   25125.80712176  .00057434  00000-0  77979-3 0  9990
2 48900  97.6739 292.2961 0002466   7.9158 352.2134 15.57447919214620
LEDSAT
1 49069U 21073D   25125.63334928  .00078243  00000-0  11056-2 0  9993
2 49069  97.3903 205.8318 0011791 199.8226 160.2572 15.56209228205992
CUTE
1 49263U 21088D   25125.15399131  .00020491  00000-0  42653-3 0  9999
2 49263  97.4518 200.4156 0008046  21.7484 338.4105 15.45612967198954
TeikyoSat 4
1 49396U 21102B   25124.84181116  .00003022  00000-0  20293-3 0  9997
2 49396  97.4140 164.5578 0010863 253.4292 106.5743 15.07485122191168
Z-Sat
1 49399U 21102E   25125.86005056  .00005887  00000-0  32571-3 0  9994
2 49399  97.3836 168.4247 0017198 219.9534 140.0434 15.14101915191727
KOSEN 1
1 49402U 21102H   25125.84692676  .00008885  00000-0  41664-3 0  9991
2 49402  97.3742 171.5695 0015818 194.2611 165.8180 15.19794478192011
HO-113
1 50466U 21131B   25125.82935796  .00000864  00000-0  28394-3 0  9990
2 50466  98.5086 215.3564 0003298 226.9277 133.1636 14.40770065176441
IRIS-A
1 51044U 22002BN  25125.63357179  .00303079  00000-0  12152-2 0  9991
2 51044  97.3238 204.3859 0005582 240.0749 119.9968 15.85716720184339
Foresail-1
1 52766U 22057AL  25125.13148256  .00211962  00000-0  11080-2 0  9990
2 52766  97.6040 273.1267 0001585 294.5114  65.5987 15.80263764164279
SNUGLITE 2
1 52899U 22065F   25125.20317261  .00001904  00000-0  37958-3 0  9994
2 52899  98.1633 267.5332 0006924 215.7925 144.2813 14.63121811151317
IO-117
1 53106U 22080B   25051.21822557 -.00000003  00000-0  00000+0 0  9995
2 53106  70.1434 106.3440 0008542  48.0089 312.1297  6.42557744 61200
UmKA 1 (RS40S)
1 57172U 23091G   25125.86903983  .00007491  00000-0  40403-3 0  9993
2 57172  97.5610 181.4370 0016303  95.5338 264.7753 15.14945472102225
CubeBel-2 (EU11S)
1 57175U 23091K   25125.85413694  .00012611  00000-0  61069-3 0  9991
2 57175  97.5608 182.3658 0014057 104.1326 256.1471 15.18611399102282
VERONIKA
1 58261U 23174F   25125.82208512  .00126717  00000-0  14414-2 0  9992
2 58261  97.4136 210.1476 0007258 181.8916 178.2315 15.61849290 83240
ENSO
1 58470U 23185J   25125.86543004  .00062045  00000-0  10186-2 0  9993
2 58470  97.3757 199.9658 0008588 198.7327 161.3610 15.52176933 79643
EIRSAT-1
1 58472U 23185L   25125.84015556  .00100553  00000-0  11952-2 0  9998
2 58472  97.3721 201.3215 0007809 199.5477 160.5482 15.60786163 79732
SONATE-2
1 59112U 24043Q   25125.81841563  .00021370  00000-0  63816-3 0  9992
2 59112  97.5081 256.3410 0010847 233.3596 126.6650 15.34576653 65004
MO-122
1 60209U 24125G   25124.86183600  .00022173  00000-0  65463-3 0  9999
2 60209  97.2843 336.9048 0017628 264.2337  95.6896 15.34827109 46470
GRBBeta
1 60237U 24128C   25125.46307604  .00004806  00000-0  36821-3 0  9991
2 60237  61.9914 201.9673 0048949  49.5421 310.9921 15.02322832 44929
Curium One
1 60242U 24128H   25125.48820399  .00008112  00000-0  57467-3 0  9993
2 60242  61.9812 200.6625 0048821  45.0869 315.4168 15.04576188 44954
ROBUSTA-3A
1 60243U 24128J   25125.48047389  .00008477  00000-0  60750-3 0  9997
2 60243  61.9883 201.4040 0047318  42.8745 317.6020 15.04152610 44941
CatSat
1 60246U 24125J   25125.57045698  .00011881  00000-0  40531-3 0  9996
2 60246  97.2632 337.2046 0042332 216.9401 142.8923 15.29615179 44633
HYPERVIEW-1G (RS66S)
1 61772U 24199AP  25125.86052398  .00025354  00000-0  76770-3 0  9993
2 61772  97.3590 354.8173 0012411 322.8161  37.2221 15.34081664 71633
AO-123
1 61781U 24199AY  25125.87468235  .00008438  00000-0  31171-3 0  9995
2 61781  97.3602 354.0620 0014809 326.4552  33.5749 15.27883441 71586
ZIMSAT 2
1 61783U 24199BA  25125.88774815  .00043843  00000-0  11581-2 0  9993
2 61783  97.3574 355.2215 0012268 320.4623  39.5726 15.38237171 74814
HADES-R (SO-124)
1 62690U 25009CK  25124.65514976  .00041420  00000-0  15768-2 0  9996
2 62690  97.4088 205.6693 0004009 194.0622 166.0506 15.26612021 16668
HYDRA-T
1 62692U 25009CM  25124.64587610  .00043116  00000-0  16310-2 0  9990
2 62692  97.4095 205.6807 0003956 190.1193 169.9967 15.26812680 16661
JINJUSat 1B
1 63210U 25052A   25125.44715419  .00015517  00000-0  72584-3 0  9994
2 63210  97.4455  20.0290 0006508  87.4585 272.7395 15.19829194  7918
NUSHSAT 1
1 63211U 25052B   25125.44626328  .00017168  00000-0  79944-3 0  9996
2 63211  97.4447  20.0242 0006559  91.2280 268.9706 15.19964603  7916
TEVEL2-4
1 63213U 25052D   25125.45343683  .00016424  00000-0  77085-3 0  9997
2 63213  97.4364  19.9617 0005583 102.7487 257.4372 15.19705575  7915
TEVEL2-5
1 63214U 25052E   25125.45366597  .00016467  00000-0  77315-3 0  9990
2 63214  97.4363  19.9615 0005589 102.7913 257.3947 15.19692761  7912
TEVEL2-6
1 63215U 25052F   25125.45488215  .00016444  00000-0  77294-3 0  9994
2 63215  97.4360  19.9603 0005619 103.3022 256.8840 15.19653108  7917
TEVEL2-1
1 63217U 25052H   25125.46113741  .00016102  00000-0  76136-3 0  9991
2 63217  97.4338  19.9363 0005638 112.7054 247.4777 15.19453042  7917
TEVEL2-2
1 63218U 25052J   25125.19796839  .00015607  00000-0  73836-3 0  9990
2 63218  97.4338  19.6770 0005693 113.6452 246.5381 15.19440481  7879
TEVEL2-3
1 63219U 25052K   25125.19799423  .00015355  00000-0  72658-3 0  9994
2 63219  97.4338  19.6769 0005687 113.6862 246.4970 15.19437292  7875
TEVEL2-8
1 63237U 25052AD  25125.43353499  .00014598  00000-0  71391-3 0  9991
2 63237  97.4405  19.8621 0010021 128.5670 231.6463 15.18273462  7902
TEVEL2-9
1 63238U 25052AE  25125.17101316  .00014652  00000-0  71766-3 0  9999
2 63238  97.4401  19.6025 0010002 129.5859 230.6260 15.18219071  7869
TEVEL2-7
1 63239U 25052AF  25125.17215308  .00014655  00000-0  71852-3 0  9996
2 63239  97.4404  19.6003 0010040 129.8719 230.3399 15.18183234  7860
HYDRA-W
1 63490U 25052BL  25124.98399706  .00032485  00000-0  14458-2 0  9997
2 63490  97.4353  19.5143 0014350 130.1917 230.0578 15.21310057  7842
HADES-ICM
1 63492U 25052BN  25125.18754674  .00032619  00000-0  14651-2 0  9995
2 63492  97.4359  19.7039 0014515 133.1762 227.0689 15.20993760  7879
